| time (UTC) | temp F | wind direction | speed MPH | gust MPH | rain 1hr in | rain 24hr in | rain mn in | humidity % | barometer mb |
| 20260904082404 | 88 | 13 | 2.0 | 3.0 | 0.00 | 0.00 | 0.00 | 48 | 1011.0 |
| 20260904081904 | 88 | 0 | 2.0 | 3.0 | 0.00 | 0.00 | 0.00 | 48 | 1010.9 |
| 20260904081404 | 88 | 11 | 1.0 | 3.0 | 0.00 | 0.00 | 0.00 | 48 | 1010.9 |
| 20260904080905 | 88 | 1 | 1.0 | 3.0 | 0.00 | 0.00 | 0.00 | 48 | 1011.1 |
| 20260904080405 | 88 | 37 | 2.0 | 3.0 | 0.00 | 0.00 | 0.00 | 48 | 1011.1 |
| 20260904075404 | 88 | 0 | 1.0 | 3.0 | 0.00 | 0.00 | 0.00 | 48 | 1010.9 |
| 20260904074904 | 88 | 6 | 1.0 | 3.0 | 0.00 | 0.00 | 0.00 | 48 | 1011.0 |
| 20260904074404 | 88 | 13 | 2.0 | 3.0 | 0.00 | 0.00 | 0.00 | 48 | 1010.9 |
| 20260904073904 | 88 | 0 | 1.0 | 3.0 | 0.00 | 0.00 | 0.00 | 48 | 1010.9 |
| 20260904073404 | 88 | 0 | 1.0 | 3.0 | 0.00 | 0.00 | 0.00 | 48 | 1010.8 |
| 20260904071904 | 88 | 109 | 2.0 | 6.0 | 0.00 | 0.00 | 0.00 | 48 | 1010.9 |
| 20260904071405 | 88 | 96 | 2.0 | 6.0 | 0.00 | 0.00 | 0.00 | 48 | 1010.9 |
| 20260904070904 | 88 | 33 | 2.0 | 6.0 | 0.00 | 0.00 | 0.00 | 48 | 1010.9 |
| 20260904070404 | 88 | 109 | 2.0 | 6.0 | 0.00 | 0.00 | 0.00 | 48 | 1010.9 |
| 20260904065405 | 88 | 8 | 2.0 | 3.0 | 0.00 | 0.00 | 0.00 | 48 | 1011.2 |
| 20260904064904 | 88 | 111 | 2.0 | 5.0 | 0.00 | 0.00 | 0.00 | 48 | 1011.1 |
| 20260904064404 | 88 | 38 | 2.0 | 5.0 | 0.00 | 0.00 | 0.00 | 48 | 1011.1 |
| 20260904063905 | 88 | 106 | 2.0 | 6.0 | 0.00 | 0.00 | 0.00 | 48 | 1011.1 |
| 20260904062904 | 88 | 123 | 1.0 | 3.0 | 0.00 | 0.00 | 0.00 | 48 | 1011.1 |
| 20260904062404 | 88 | 124 | 1.0 | 3.0 | 0.00 | 0.00 | 0.00 | 48 | 1011.1 |
| 20260904061904 | 88 | 126 | 1.0 | 3.0 | 0.00 | 0.00 | 0.00 | 48 | 1011.2 |
| 20260904061404 | 88 | 126 | 2.0 | 6.0 | 0.00 | 0.00 | 0.00 | 48 | 1011.1 |
| 20260904060905 | 88 | 119 | 2.0 | 5.0 | 0.00 | 0.00 | 0.00 | 48 | 1011.1 |
| 20260904060404 | 88 | 104 | 2.0 | 7.0 | 0.00 | 0.00 | 0.00 | 48 | 1011.1 |
| 20260904055405 | 88 | 112 | 4.0 | 7.0 | 0.00 | 0.00 | 0.00 | 48 | 1011.1 |
| 20260904054904 | 88 | 111 | 5.0 | 8.0 | 0.00 | 0.00 | 0.00 | 48 | 1011.1 |
| 20260904053905 | 88 | 116 | 5.0 | 9.0 | 0.00 | 0.00 | 0.00 | 48 | 1010.9 |
| 20260904053405 | 88 | 109 | 5.0 | 8.0 | 0.00 | 0.00 | 0.00 | 48 | 1011.0 |
| 20260904052904 | 88 | 116 | 4.0 | 7.0 | 0.00 | 0.00 | 0.00 | 48 | 1011.1 |
| 20260904052405 | 88 | 122 | 2.0 | 9.0 | 0.00 | 0.00 | 0.00 | 48 | 1011.0 |
| 20260904051905 | 88 | 115 | 4.0 | 8.0 | 0.00 | 0.00 | 0.00 | 48 | 1010.9 |
| 20260904051405 | 88 | 107 | 3.0 | 7.0 | 0.00 | 0.00 | 0.00 | 48 | 1011.1 |
| 20260904050904 | 88 | 112 | 3.0 | 7.0 | 0.00 | 0.00 | 0.00 | 48 | 1011.1 |
| 20260904050404 | 88 | 115 | 4.0 | 7.0 | 0.00 | 0.00 | 0.00 | 48 | 1011.1 |
| 20260904045905 | 88 | 107 | 3.0 | 8.0 | 0.00 | 0.00 | 0.00 | 48 | 1011.0 |
| 20260904045405 | 88 | 117 | 2.0 | 7.0 | 0.00 | 0.00 | 0.00 | 48 | 1010.9 |
| 20260904044904 | 88 | 105 | 3.0 | 8.0 | 0.00 | 0.00 | 0.00 | 48 | 1011.1 |
| 20260904044405 | 88 | 115 | 2.0 | 7.0 | 0.00 | 0.00 | 0.00 | 48 | 1011.1 |
| 20260904043904 | 88 | 117 | 3.0 | 8.0 | 0.00 | 0.00 | 0.00 | 48 | 1011.1 |
| 20260904043405 | 88 | 117 | 3.0 | 6.0 | 0.00 | 0.00 | 0.00 | 48 | 1011.1 |
| 20260904042905 | 88 | 119 | 4.0 | 8.0 | 0.00 | 0.00 | 0.00 | 48 | 1011.1 |
| 20260904042404 | 88 | 103 | 3.0 | 8.0 | 0.00 | 0.00 | 0.00 | 48 | 1011.2 |
| 20260904041905 | 88 | 120 | 4.0 | 8.0 | 0.00 | 0.00 | 0.00 | 48 | 1011.3 |
| 20260904041404 | 88 | 121 | 3.0 | 7.0 | 0.00 | 0.00 | 0.00 | 48 | 1011.3 |
| 20260904040404 | 88 | 111 | 4.0 | 8.0 | 0.00 | 0.00 | 0.00 | 48 | 1011.3 |
| 20260904034905 | 88 | 113 | 1.0 | 3.0 | 0.00 | 0.00 | 0.00 | 48 | 1011.2 |
| 20260904034404 | 88 | 116 | 2.0 | 6.0 | 0.00 | 0.00 | 0.00 | 48 | 1011.2 |
| 20260904033905 | 88 | 118 | 2.0 | 6.0 | 0.00 | 0.00 | 0.00 | 48 | 1011.2 |
| 20260904032905 | 88 | 109 | 2.0 | 6.0 | 0.00 | 0.00 | 0.00 | 48 | 1011.2 |
| 20260904032405 | 88 | 107 | 4.0 | 8.0 | 0.00 | 0.00 | 0.00 | 48 | 1011.3 |
| 20260904031404 | 88 | 117 | 2.0 | 7.0 | 0.00 | 0.00 | 0.00 | 48 | 1011.1 |
| 20260904030906 | 88 | 117 | 3.0 | 8.0 | 0.00 | 0.00 | 0.00 | 48 | 1011.2 |
| 20260904030405 | 88 | 108 | 3.0 | 8.0 | 0.00 | 0.00 | 0.00 | 48 | 1011.2 |
| 20260904025905 | 88 | 107 | 4.0 | 7.0 | 0.00 | 0.00 | 0.00 | 48 | 1011.2 |
| 20260904025405 | 88 | 120 | 3.0 | 9.0 | 0.00 | 0.00 | 0.00 | 48 | 1011.0 |
| 20260904024904 | 88 | 112 | 6.0 | 9.0 | 0.00 | 0.00 | 0.00 | 48 | 1010.9 |
| 20260904024404 | 88 | 121 | 4.0 | 9.0 | 0.00 | 0.00 | 0.00 | 48 | 1010.9 |
| 20260904023905 | 88 | 115 | 3.0 | 9.0 | 0.00 | 0.00 | 0.00 | 48 | 1010.8 |
| 20260904023405 | 88 | 121 | 2.0 | 7.0 | 0.00 | 0.00 | 0.00 | 48 | 1010.8 |
| 20260904022905 | 88 | 122 | 3.0 | 8.0 | 0.00 | 0.00 | 0.00 | 48 | 1010.7 |
| 20260904022405 | 88 | 111 | 6.0 | 9.0 | 0.00 | 0.00 | 0.00 | 48 | 1010.5 |
| 20260904021906 | 88 | 114 | 5.0 | 9.0 | 0.00 | 0.00 | 0.00 | 48 | 1010.5 |
| 20260904021405 | 88 | 120 | 4.0 | 8.0 | 0.00 | 0.00 | 0.00 | 48 | 1010.4 |
| 20260904020904 | 88 | 128 | 3.0 | 8.0 | 0.00 | 0.00 | 0.00 | 48 | 1010.3 |
| 20260904020405 | 88 | 118 | 2.0 | 7.0 | 0.00 | 0.00 | 0.00 | 48 | 1010.3 |
| 20260904015904 | 88 | 126 | 3.0 | 8.0 | 0.00 | 0.00 | 0.00 | 48 | 1010.3 |
| 20260904015405 | 88 | 116 | 5.0 | 12.0 | 0.00 | 0.00 | 0.00 | 48 | 1010.2 |
| 20260904014404 | 88 | 117 | 3.0 | 10.0 | 0.00 | 0.00 | 0.00 | 48 | 1010.0 |
| 20260904013405 | 88 | 118 | 5.0 | 10.0 | 0.00 | 0.00 | 0.00 | 48 | 1009.9 |
| 20260904012905 | 88 | 115 | 6.0 | 10.0 | 0.00 | 0.00 | 0.00 | 48 | 1009.8 |
| 20260904011904 | 88 | 114 | 6.0 | 12.0 | 0.00 | 0.00 | 0.00 | 48 | 1009.7 |
| 20260904011405 | 88 | 111 | 5.0 | 9.0 | 0.00 | 0.00 | 0.00 | 48 | 1009.6 |
| 20260904010904 | 88 | 118 | 7.0 | 12.0 | 0.00 | 0.00 | 0.00 | 48 | 1009.7 |
| 20260904010404 | 88 | 115 | 6.0 | 12.0 | 0.00 | 0.00 | 0.00 | 48 | 1009.6 |
| 20260904005405 | 88 | 123 | 6.0 | 12.0 | 0.00 | 0.00 | 0.00 | 48 | 1009.6 |
| 20260904004904 | 88 | 118 | 7.0 | 12.0 | 0.00 | 0.00 | 0.00 | 48 | 1009.6 |
| 20260904003405 | 88 | 117 | 8.0 | 12.0 | 0.00 | 0.00 | 0.00 | 48 | 1009.5 |
| 20260904002904 | 88 | 116 | 6.0 | 10.0 | 0.00 | 0.00 | 0.00 | 48 | 1009.5 |
| 20260904002404 | 88 | 105 | 5.0 | 9.0 | 0.00 | 0.00 | 0.00 | 48 | 1009.5 |